Tracking 35048 objects as of 19-Aug-2026
HD Live streaming from Space Station
objects crossing your sky now

GLOBALSTAR M062

Track GLOBALSTAR M062 now!
10-day predictions
GLOBALSTAR M062 is classified as:


NORAD ID: 26082
Int'l Code: 2000-008B
Launch date: February 8, 2000
Source: Globalstar (GLOB)
Launch site: AIR FORCE EASTERN TEST RANGE (AFETR)
Your satellite tracking list
Your tracking list is empty




NASA's NSSDC Master Catalog

Two Line Element Set (TLE):
1 26082U 00008B   26231.14547222 -.00000087  00000-0  77358-4 0  9997
2 26082  51.9840 277.2553 0006913 308.5429  85.9320 12.43499497549869
Source of the keplerian elements: AFSPC